Date String (YYYY-MM-DD hh:mm:ss) UTC,Instrument flags,Ambient pressure (hPa),Sample flow (lpm),Bypass flow (lpm),Sample temperature (°C),Ambient temperature (°C),ASC tube jacket temperature (°C),LED temperature (°C),Box temperature (°C),Sample RH (%),Span deviation,Mass concentration (μg/m³),Mass concentration (μg/m³),Mass concentration (μg/m³)
DateTimeUTC,F1_M11,P_M11,Q1_M11,Q2_M11,T1_M11,T2_M11,T3_M11,T4_M11,T5_M11,U1_M11,ZSPAN_M11,X0_M11,X2_M11,X1_M11
2022-05-10 03:00:00,,0819.8,5.00,0.00,29.7,29.0,00.0,38.7,31.4,13.3,0000.0,0024.42,0006.52,0002.55
2022-05-10 03:01:00,,0819.9,5.01,0.00,29.7,29.0,00.0,38.7,31.5,13.2,0000.0,0023.82,0006.48,0002.56
2022-05-10 03:02:00,,0819.9,5.00,0.00,29.7,29.0,00.0,38.7,31.4,13.2,0000.0,0022.29,0006.36,0002.58
2022-05-10 03:03:00,,0819.9,4.99,0.00,29.7,29.0,00.0,38.7,31.4,13.2,0000.0,0021.84,0006.33,0002.56
2022-05-10 03:04:00,,0819.9,4.99,0.00,29.7,29.0,00.0,38.7,31.4,13.2,0000.0,0021.92,0006.29,0002.57
2022-05-10 03:05:00,,0820.0,5.00,0.00,29.7,29.0,00.0,38.7,31.4,13.2,0000.0,0022.15,0006.35,0002.59
2022-05-10 03:06:00,,0820.1,5.01,0.00,29.7,29.0,00.0,38.7,31.4,13.2,0000.0,0021.29,0006.46,0002.58
2022-05-10 03:07:00,,0820.3,5.00,0.00,29.7,29.0,00.0,38.7,31.4,13.3,0000.0,0021.24,0006.56,0002.58
2022-05-10 03:08:00,,0820.3,4.99,0.00,29.7,29.0,00.0,38.7,31.4,13.2,0000.0,0022.35,0006.65,0002.58
2022-05-10 03:09:00,,0820.3,5.01,0.00,29.7,29.0,00.0,38.7,31.4,13.1,0000.0,0022.87,0006.66,0002.56
2022-05-10 03:10:00,,0820.3,5.00,0.00,29.7,29.0,00.0,38.7,31.4,13.0,0000.0,0023.40,0006.68,0002.56
2022-05-10 03:11:00,,0820.3,5.00,0.00,29.7,29.0,00.0,38.7,31.4,13.1,0000.0,0022.73,0006.55,0002.54
2022-05-10 03:12:00,,0820.3,5.00,0.00,29.7,28.9,00.0,38.7,31.4,13.1,0000.0,0023.69,0006.56,0002.54
2022-05-10 03:13:00,,0820.3,5.00,0.00,29.7,29.0,00.0,38.7,31.4,13.1,0000.0,0025.49,0006.68,0002.54
2022-05-10 03:14:00,,0820.4,5.00,0.00,29.7,29.0,00.0,38.7,31.4,13.1,0000.0,0025.08,0006.69,0002.57
2022-05-10 03:15:00,,0820.4,5.01,0.00,29.7,29.0,00.0,38.7,31.4,13.1,0000.0,0025.59,0006.74,0002.57
2022-05-10 03:16:00,,0820.6,5.00,0.00,29.7,29.0,00.0,38.7,31.4,13.0,0000.0,0025.71,0006.76,0002.58
2022-05-10 03:17:00,,0820.6,4.99,0.00,29.7,29.0,00.0,38.7,31.4,13.1,0000.0,0026.28,0006.74,0002.59
2022-05-10 03:18:00,,0820.6,5.00,0.00,29.7,29.0,00.0,38.7,31.4,13.2,0000.0,0026.20,0006.74,0002.60
2022-05-10 03:19:00,,0820.6,5.00,0.00,29.7,29.0,00.0,38.7,31.4,13.3,0000.0,0025.38,0006.70,0002.60
2022-05-10 03:20:00,,0820.8,5.00,0.00,29.7,29.0,00.0,38.7,31.5,13.3,0000.0,0025.24,0006.68,0002.61
2022-05-10 03:21:00,,0820.9,5.00,0.00,29.7,29.0,00.0,38.7,31.5,13.2,0000.0,0025.46,0006.57,0002.61
2022-05-10 03:22:00,,0820.8,5.00,0.00,29.7,29.0,00.0,38.7,31.5,13.1,0000.0,0025.43,0006.55,0002.61
2022-05-10 03:23:00,,0820.9,4.99,0.00,29.7,29.0,00.0,38.7,31.5,13.0,0000.0,0024.65,0006.54,0002.59
2022-05-10 03:24:00,,0820.9,5.00,0.00,29.7,29.1,00.0,38.7,31.5,13.1,0000.0,0023.19,0006.50,0002.59
2022-05-10 03:25:00,,0820.8,5.00,0.00,29.7,29.0,00.0,38.7,31.5,13.2,0000.0,0023.83,0006.48,0002.60
2022-05-10 03:26:00,,0820.8,5.01,0.00,29.7,29.1,00.0,38.7,31.5,13.1,0000.0,0024.28,0006.37,0002.59
2022-05-10 03:27:00,,0820.9,5.00,0.00,29.8,29.1,00.0,38.7,31.5,12.9,0000.0,0024.28,0006.22,0002.54
2022-05-10 03:28:00,,0820.9,4.99,0.00,29.8,29.1,00.0,38.7,31.5,12.8,0000.0,0023.13,0006.12,0002.51
2022-05-10 03:29:00,,0821.0,5.00,0.00,29.7,29.1,00.0,38.7,31.5,12.8,0000.0,0022.70,0006.01,0002.47
2022-05-10 03:30:00,,0821.0,4.99,0.00,29.7,29.1,00.0,38.7,31.5,12.8,0000.0,0022.68,0005.96,0002.43
2022-05-10 03:31:00,,0821.0,5.00,0.00,29.7,29.1,00.0,38.7,31.5,12.7,0000.0,0022.13,0005.90,0002.41
2022-05-10 03:32:00,,0821.1,5.00,0.00,29.7,29.0,00.0,38.7,31.5,12.7,0000.0,0021.17,0005.84,0002.40
2022-05-10 03:33:00,,0821.1,5.00,0.00,29.7,29.0,00.0,38.7,31.5,12.6,0000.0,0022.28,0005.86,0002.39
2022-05-10 03:34:00,,0821.1,5.00,0.00,29.7,29.0,00.0,38.7,31.4,12.7,0000.0,0023.96,0005.89,0002.40
2022-05-10 03:35:00,,0821.1,4.99,0.00,29.7,29.0,00.0,38.7,31.4,12.6,0000.0,0023.95,0005.84,0002.36
2022-05-10 03:36:00,,0821.1,5.00,0.00,29.7,29.0,00.0,38.7,31.4,12.5,0000.0,0024.63,0005.81,0002.33
2022-05-10 03:37:00,,0821.1,4.99,0.00,29.7,29.0,00.0,38.7,31.4,12.6,0000.0,0023.90,0005.81,0002.32
2022-05-10 03:38:00,,0821.2,5.01,0.00,29.7,29.0,00.0,38.7,31.5,12.6,0000.0,0023.54,0005.88,0002.31
2022-05-10 03:39:00,,0821.2,5.00,0.00,29.7,29.0,00.0,38.7,31.5,12.7,0000.0,0024.17,0005.80,0002.28
2022-05-10 03:40:00,,0821.2,4.99,0.00,29.7,29.0,00.0,38.7,31.5,12.7,0000.0,0024.82,0005.79,0002.28
2022-05-10 03:41:00,,0821.2,5.00,0.00,29.7,29.0,00.0,38.7,31.5,12.6,0000.0,0024.91,0005.78,0002.31
2022-05-10 03:42:00,,0821.3,5.01,0.00,29.7,29.0,00.0,38.7,31.5,12.7,0000.0,0024.98,0005.75,0002.32
2022-05-10 03:43:00,,0821.4,5.00,0.00,29.7,29.0,00.0,38.7,31.5,12.7,0000.0,0024.32,0005.79,0002.31
2022-05-10 03:44:00,,0821.4,5.01,0.00,29.7,29.1,00.0,38.7,31.5,12.8,0000.0,0023.35,0005.78,0002.32
2022-05-10 03:45:00,,0821.4,5.00,0.00,29.8,29.1,00.0,38.7,31.5,12.6,0000.0,0022.07,0005.79,0002.32
2022-05-10 03:46:00,,0821.4,5.00,0.00,29.8,29.1,00.0,38.7,31.5,12.6,0000.0,0021.91,0005.76,0002.34
2022-05-10 03:47:00,,0821.4,4.99,0.00,29.8,29.1,00.0,38.7,31.5,12.7,0000.0,0020.26,0005.73,0002.34
2022-05-10 03:48:00,,0821.4,5.01,0.00,29.8,29.1,00.0,38.7,31.5,12.8,0000.0,0020.51,0005.81,0002.35
2022-05-10 03:49:00,,0821.4,5.00,0.00,29.8,29.1,00.0,38.7,31.5,12.8,0000.0,0021.58,0005.92,0002.39
2022-05-10 03:50:00,,0821.5,5.00,0.00,29.8,29.1,00.0,38.7,31.5,12.8,0000.0,0021.56,0006.07,0002.42
2022-05-10 03:51:00,,0821.6,5.00,0.00,29.8,29.0,00.0,38.7,31.5,12.9,0000.0,0020.97,0006.08,0002.42
2022-05-10 03:52:00,,0821.6,5.01,0.00,29.8,29.0,00.0,38.7,31.5,13.0,0000.0,0020.54,0006.08,0002.41
2022-05-10 03:53:00,,0821.6,5.01,0.00,29.8,29.1,00.0,38.7,31.5,13.1,0000.0,0019.79,0006.12,0002.42
2022-05-10 03:54:00,,0821.6,5.00,0.00,29.8,29.1,00.0,38.7,31.5,13.2,0000.0,0021.16,0006.15,0002.43
2022-05-10 03:55:00,,0821.7,4.99,0.00,29.8,29.1,00.0,38.7,31.6,13.2,0000.0,0022.50,0006.19,0002.40
2022-05-10 03:56:00,,0821.7,5.00,0.00,29.8,29.1,00.0,38.7,31.5,13.1,0000.0,0022.06,0006.15,0002.39
2022-05-10 03:57:00,,0821.7,5.01,0.00,29.8,29.1,00.0,38.7,31.5,13.0,0000.0,0021.69,0006.17,0002.38
2022-05-10 03:58:00,,0821.6,5.01,0.00,29.8,29.1,00.0,38.7,31.6,13.1,0000.0,0021.33,0006.17,0002.38
2022-05-10 03:59:00,,0821.6,5.00,0.00,29.8,29.1,00.0,38.7,31.6,13.3,0000.0,0020.77,0006.09,0002.36
